This demonstration page uses our WeatherBlox Daily Observations layout. Learn more.

38.89511, -77.03637

Hourly Observations for September 23, 2015

Temp ( °F °C ) Dew Point ( °F °C ) Humidity (%) Winds ( mph kmh ) Pressure ( in mb ) Visibility ( mi km ) Precip ( " mm )
12:52 am 00:52 Mostly Cloudy 66 19 57 14 73 73 NNE 7 11 30.21 1023 10 16.09344 0 0
1:52 am 01:52 Mostly Cloudy 66 19 57 14 73 73 NE 9 15 30.21 1023 10 16.09344 0 0
2:52 am 02:52 Mostly Cloudy 64 18 57 14 78 78 N 8 13 30.24 1024 10 16.09344 0 0
3:52 am 03:52 Mostly Cloudy 63 17 57 14 83 83 NNW 9 15 30.21 1023 10 16.09344 0 0
4:52 am 04:52 Partly Cloudy 61 16 57 14 88 88 NNW 8 13 30.24 1024 10 16.09344 0 0
5:52 am 05:52 Mostly Clear 63 17 57 14 83 83 NNE 7 11 30.24 1024 10 16.09344 0 0
6:52 am 06:52 Mostly Clear 63 17 57 14 83 83 NNE 10 17 30.24 1024 10 16.09344 0 0
7:52 am 07:52 Mostly Sunny 63 17 57 14 83 83 NNE 8 13 30.24 1024 10 16.09344 0 0
8:52 am 08:52 Partly Cloudy 66 19 55 13 68 68 NNE 13 20 30.27 1025 10 16.09344 0 0
9:52 am 09:52 Partly Cloudy 70 21 57 14 64 64 NE 15 24 30.27 1025 10 16.09344 0 0
10:52 am 10:52 Partly Cloudy 72 22 55 13 57 57 NNE 15 24 30.27 1025 10 16.09344 0 0
11:52 am 11:52 Partly Cloudy 73 23 52 11 47 47 NE 15 24 30.24 1024 10 16.09344 0 0
12:52 pm 12:52 Mostly Cloudy 75 24 50 10 41 41 N 3 6 30.24 1024 10 16.09344 0 0
1:52 pm 13:52 Mostly Cloudy 79 26 48 9 34 34 NNE 13 20 30.24 1024 10 16.09344 0 0
3:52 pm 15:52 Partly Cloudy 81 27 45 7 28 28 NE 6 9 30.21 1023 10 16.09344 0 0
4:52 pm 16:52 Partly Cloudy 79 26 45 7 30 30 ENE 13 20 30.18 1022 10 16.09344 0 0
5:52 pm 17:52 Partly Cloudy 77 25 46 8 34 34 E 9 15 30.18 1022 10 16.09344 0 0
6:52 pm 18:52 Partly Cloudy 73 23 48 9 41 41 E 8 13 30.21 1023 10 16.09344 0 0
7:52 pm 19:52 Partly Cloudy 72 22 50 10 47 47 ENE 3 6 30.21 1023 10 16.09344 0 0
8:52 pm 20:52 Partly Cloudy 72 22 54 12 53 53 NE 3 6 30.21 1023 10 16.09344 0 0
9:52 pm 21:52 Partly Cloudy 68 20 54 12 60 60 N 7 11 30.21 1023 10 16.09344 0 0
10:52 pm 22:52 Mostly Cloudy 66 19 55 13 68 68 N 6 9 30.21 1023 10 16.09344 0 0
11:52 pm 23:52 Mostly Cloudy 64 18 55 13 73 73 N 3 6 30.24 1024 10 16.09344 0 0

Powered by AerisWeather